Wind_Speed
52 53 54 55 56 57 58 59 60 59 58 58 59 59 61 61 62 62 62 63 63 63 64 65 65 66 66 66 66 66 66 66 67 67 67 67 67 66
52 53 54 55 57 57 58 58 59 60 59 59 60 60 60 61 61 61 61 61 62 63 62 63 64 65 65 66 66 67 67 67 67 67 68 68 68 68
53 53 54 54 55 56 58 58 59 59 59 59 60 60 60 60 60 60 60 61 62 62 62 63 63 63 64 65 66 66 66 67 67 67 68 67 68 68
53 53 53 54 55 55 56 57 58 59 59 58 58 59 59 60 60 60 59 60 61 61 61 61 62 62 62 63 63 64 65 65 66 66 67 67 67 68
52 52 53 54 54 55 55 56 56 56 57 57 57 58 59 60 60 59 59 59 60 59 59 59 60 60 59 60 61 62 63 64 65 65 66 67 67 67
51 51 52 52 53 53 54 53 54 54 54 55 56 57 58 58 58 58 58 58 59 59 59 59 59 59 59 60 60 61 62 63 64 65 65 66 67 67
50 50 50 51 51 52 52 52 53 53 54 54 54 55 55 56 56 58 58 58 58 58 58 58 58 58 59 59 60 60 61 61 63 64 65 65 66 66
48 48 49 49 49 50 52 52 52 53 53 54 54 54 54 55 55 55 56 56 56 56 57 56 57 57 58 58 58 58 59 60 61 62 63 65 66 66
46 47 47 48 49 50 51 51 51 52 52 52 52 52 52 52 53 54 54 54 53 54 55 54 54 55 55 56 57 57 57 58 58 59 60 62 64 66
45 46 46 47 47 47 48 48 49 49 49 50 50 50 51 51 51 52 52 53 52 52 54 53 53 53 53 54 54 55 56 56 57 58 58 59 61 63
44 44 45 45 44 44 45 45 45 45 46 48 49 49 49 49 49 49 49 50 50 50 52 52 52 52 51 51 52 53 54 54 55 56 57 58 59 60
42 42 42 42 42 42 43 43 43 43 43 44 44 45 45 46 46 47 47 47 48 48 49 50 50 50 49 50 50 51 52 53 53 54 54 55 56 58
39 39 39 39 39 39 40 40 40 40 40 40 40 41 41 42 43 44 45 45 45 45 46 48 48 48 49 48 49 49 50 51 51 52 52 53 54 55
38 38 37 37 37 37 37 38 38 38 38 37 37 37 38 38 39 40 40 41 42 43 43 45 46 46 47 47 46 47 48 49 50 50 50 50 51 51
36 36 36 36 36 36 36 37 37 36 36 35 35 35 36 36 36 36 37 38 39 39 40 41 42 43 44 45 45 44 45 45 46 47 47 48 47 47
34 34 34 34 34 34 35 35 35 35 34 35 35 34 34 34 34 35 35 36 36 37 38 39 39 40 41 42 42 42 42 42 42 43 43 44 44 45
33 33 32 32 33 32 32 33 33 33 34 34 34 34 34 34 34 34 35 35 35 35 36 37 38 38 38 38 38 39 40 40 40 41 41 41 42 43
32 32 31 31 31 31 31 31 32 32 33 33 33 33 33 33 33 34 35 35 35 35 35 36 36 37 37 36 37 37 37 37 38 39 39 40 40 42
30 30 30 30 30 30 30 31 31 32 32 32 32 32 32 33 33 34 34 35 35 35 35 36 36 36 37 36 35 37 36 36 37 37 38 38 38 39
30 31 31 31 30 31 31 31 31 31 31 31 32 32 32 32 32 33 34 35 35 36 36 36 37 37 37 36 36 36 37 36 36 37 37 37 37 38
31 31 31 31 31 31 31 31 31 31 31 31 31 32 32 32 32 33 34 35 36 36 36 36 36 37 37 36 36 35 36 36 36 36 36 37 36 37
31 31 31 31 31 31 31 31 31 31 31 31 31 32 32 33 33 34 34 35 36 36 36 35 35 36 36 36 36 35 35 36 36 36 36 36 36 36
30 30 30 30 31 31 31 32 32 32 32 32 32 32 33 33 34 34 35 35 35 35 35 35 35 36 36 36 35 35 34 34 35 35 35 36 36 36
Wind_Direction
272 270 269 269 269 268 268 268 268 267 266 266 265 265 265 265 265 265 265 265 265 265 265 265 265 264 263 262 261 260 260 259 258 257 257 257 257 257
272 272 271 270 270 270 269 269 269 268 267 266 265 265 265 265 266 266 265 265 265 266 266 266 265 264 263 262 262 261 260 259 258 257 257 257 257 257
273 272 272 271 271 271 271 270 270 269 268 267 266 266 266 266 266 266 266 266 266 266 267 267 265 264 263 263 262 261 260 260 259 258 257 257 256 256
274 273 272 272 272 273 273 272 271 270 269 268 267 267 266 267 266 267 267 267 267 267 267 266 266 265 264 263 263 262 261 260 259 258 257 257 257 256
274 274 273 273 273 274 274 274 272 271 270 269 268 268 267 267 266 266 267 266 266 266 266 266 266 266 265 265 264 263 262 261 260 259 258 257 257 256
274 274 274 274 274 275 275 273 272 271 271 270 269 268 267 267 266 266 266 266 265 266 267 268 268 267 267 266 265 264 263 262 261 260 259 258 257 256
275 275 276 275 275 274 274 273 273 272 271 271 270 269 268 267 267 267 266 267 266 267 267 268 268 268 268 267 267 266 265 264 262 261 260 259 258 256
275 275 276 275 274 274 274 274 274 273 272 271 271 270 269 268 268 268 267 267 266 267 268 268 268 268 267 267 268 267 266 265 264 263 261 260 259 258
276 276 276 276 276 275 274 274 274 273 272 272 272 271 270 270 268 268 267 267 267 266 267 267 267 268 268 267 268 268 267 267 266 264 262 261 260 259
277 277 277 277 276 276 275 275 274 273 272 272 272 272 271 270 269 268 268 268 267 267 267 267 267 268 268 267 267 268 268 267 267 266 264 263 261 259
278 278 278 277 277 276 276 276 275 274 273 272 272 272 271 270 269 269 269 268 268 268 269 270 269 268 268 268 269 269 268 268 267 266 265 264 262 260
279 279 278 278 278 277 276 276 276 275 274 273 272 271 271 270 269 269 269 269 269 269 269 270 270 269 268 268 269 270 269 268 267 266 265 265 263 262
280 280 279 279 278 278 277 277 277 275 274 274 273 273 273 272 271 270 270 270 271 271 270 270 271 271 270 270 269 269 269 268 267 266 265 265 264 262
281 281 281 280 279 278 277 276 276 277 276 275 275 275 274 274 273 273 273 273 273 273 273 272 272 272 271 270 270 269 268 268 267 267 266 265 264 263
281 282 281 280 279 278 278 277 278 277 276 276 276 276 275 275 275 274 274 274 274 275 275 275 274 273 273 272 271 270 269 267 267 267 266 265 264 263
281 281 280 279 278 278 277 277 278 277 276 275 275 275 276 275 275 274 275 275 275 276 276 276 277 277 276 274 273 271 269 268 266 266 265 264 264 263
279 279 279 279 279 279 278 277 277 277 276 276 276 276 276 275 274 274 275 276 277 277 276 277 279 279 279 277 275 273 270 268 267 266 265 263 263 263
278 279 279 280 280 279 278 277 277 277 277 276 276 276 276 275 275 275 276 277 278 279 280 280 280 279 280 280 278 275 271 269 267 267 266 265 263 262
278 279 280 280 279 278 277 277 277 277 278 277 277 276 276 276 277 278 278 279 280 280 281 282 281 281 280 279 277 276 273 271 269 268 268 267 266 263
279 279 279 279 278 277 278 278 278 278 279 279 278 278 278 279 280 280 281 281 281 281 282 282 282 282 282 280 278 275 274 273 271 270 268 267 267 265
279 279 279 279 278 278 278 277 278 279 280 279 279 279 279 280 281 282 283 283 283 283 283 283 282 282 282 281 280 277 275 274 274 272 270 268 267 267
279 279 279 279 278 278 278 278 278 278 280 280 280 280 280 281 282 283 283 283 283 283 284 283 282 282 282 282 282 280 276 274 273 273 272 271 270 270
278 278 278 279 279 278 279 279 278 279 279 280 281 281 281 282 283 284 284 283 283 284 284 284 283 283 283 283 283 281 277 275 274 272 273 274 272 272
Height
5597 5597 5597 5597 5597 5598 5599 5600 5601 5603 5606 5606 5605 5606 5607 5608 5609 5610 5612 5613 5613 5614 5615 5617 5618 5619 5621 5623 5625 5627 5630 5633 5636 5640 5644 5647 5651 5655
5583 5582 5582 5582 5582 5582 5583 5583 5583 5585 5588 5590 5589 5589 5589 5591 5592 5593 5594 5595 5595 5596 5597 5598 5599 5600 5601 5603 5605 5607 5610 5613 5616 5620 5623 5627 5631 5635
5568 5568 5567 5567 5567 5567 5567 5567 5567 5567 5569 5573 5572 5572 5572 5573 5574 5575 5577 5578 5578 5578 5579 5579 5580 5581 5582 5584 5586 5588 5591 5593 5596 5600 5603 5607 5611 5616
5553 5553 5552 5552 5552 5551 5551 5551 5551 5551 5551 5554 5556 5555 5556 5556 5557 5558 5559 5560 5560 5561 5561 5561 5562 5563 5564 5565 5567 5569 5571 5574 5577 5580 5584 5589 5592 5594
5538 5538 5537 5537 5537 5536 5535 5535 5535 5534 5535 5536 5539 5539 5539 5539 5540 5541 5542 5542 5543 5543 5544 5544 5545 5545 5546 5547 5548 5550 5553 5556 5559 5561 5563 5567 5571 5575
5524 5523 5522 5522 5521 5521 5520 5519 5519 5519 5519 5519 5521 5522 5523 5523 5523 5524 5525 5525 5526 5526 5526 5527 5528 5528 5529 5530 5532 5533 5534 5536 5538 5541 5544 5547 5551 5555
5510 5509 5508 5507 5506 5505 5505 5504 5504 5503 5503 5503 5504 5505 5506 5507 5507 5507 5508 5508 5509 5509 5510 5511 5511 5512 5512 5512 5513 5513 5515 5517 5519 5522 5525 5528 5531 5535
5496 5495 5493 5492 5492 5491 5490 5489 5489 5488 5488 5488 5489 5489 5490 5490 5490 5490 5490 5492 5494 5494 5493 5494 5494 5495 5495 5495 5495 5496 5497 5499 5501 5503 5505 5508 5511 5515
5482 5481 5480 5478 5477 5476 5475 5475 5474 5473 5473 5473 5473 5474 5474 5474 5474 5474 5474 5474 5476 5477 5476 5479 5478 5478 5479 5479 5479 5480 5480 5481 5482 5484 5486 5489 5491 5494
5468 5467 5466 5465 5463 5462 5461 5461 5460 5459 5459 5458 5459 5458 5458 5457 5457 5458 5458 5459 5460 5460 5460 5462 5462 5463 5463 5463 5463 5463 5463 5464 5465 5466 5468 5470 5472 5474
5455 5454 5452 5451 5450 5449 5448 5448 5447 5446 5445 5444 5443 5443 5442 5442 5442 5442 5443 5443 5445 5445 5444 5445 5446 5447 5448 5448 5447 5446 5446 5447 5448 5449 5450 5451 5453 5455
5443 5441 5440 5438 5437 5436 5435 5434 5434 5433 5432 5431 5430 5429 5429 5428 5428 5428 5428 5428 5429 5431 5430 5429 5430 5430 5432 5433 5431 5430 5430 5430 5431 5432 5433 5433 5435 5436
5431 5429 5428 5426 5425 5424 5423 5422 5421 5420 5419 5419 5418 5417 5416 5416 5415 5415 5414 5414 5415 5415 5415 5414 5414 5414 5414 5417 5417 5415 5415 5414 5415 5415 5416 5417 5418 5419
5419 5418 5416 5415 5414 5413 5412 5411 5409 5408 5408 5407 5407 5406 5405 5404 5403 5403 5402 5401 5401 5401 5401 5400 5400 5399 5399 5400 5401 5401 5400 5399 5399 5400 5400 5401 5402 5403
5408 5407 5405 5404 5403 5402 5401 5400 5399 5398 5397 5397 5396 5395 5394 5393 5392 5391 5391 5390 5390 5389 5388 5386 5386 5385 5385 5385 5386 5386 5385 5385 5385 5385 5385 5386 5387 5388
5397 5396 5395 5394 5392 5392 5390 5389 5389 5388 5387 5386 5385 5385 5384 5383 5382 5381 5380 5379 5378 5378 5376 5375 5373 5372 5372 5371 5371 5371 5370 5371 5371 5371 5371 5372 5373 5374
5387 5386 5385 5384 5383 5382 5381 5380 5379 5378 5377 5376 5375 5374 5373 5372 5371 5370 5369 5368 5367 5367 5366 5364 5362 5360 5359 5358 5358 5358 5357 5358 5358 5358 5358 5359 5360 5361
5377 5376 5375 5374 5373 5372 5371 5370 5369 5368 5367 5366 5365 5364 5363 5362 5361 5360 5359 5358 5357 5356 5355 5353 5351 5350 5349 5348 5346 5345 5345 5345 5345 5345 5345 5346 5347 5348
5367 5366 5365 5364 5363 5362 5362 5361 5360 5359 5357 5356 5355 5354 5353 5352 5351 5350 5349 5348 5347 5345 5344 5342 5340 5338 5338 5337 5337 5334 5333 5333 5333 5333 5333 5333 5334 5335
5357 5357 5356 5355 5354 5353 5352 5351 5350 5349 5348 5347 5346 5344 5343 5342 5341 5340 5339 5337 5336 5335 5333 5331 5329 5327 5326 5325 5325 5325 5322 5321 5321 5321 5321 5321 5322 5322
5348 5347 5346 5345 5344 5343 5342 5342 5341 5340 5339 5337 5336 5335 5334 5333 5331 5330 5328 5327 5325 5324 5322 5321 5318 5316 5314 5313 5313 5313 5312 5310 5309 5308 5308 5309 5310 5310
5338 5337 5336 5335 5334 5334 5333 5332 5331 5330 5329 5328 5327 5325 5324 5323 5321 5320 5318 5316 5314 5313 5311 5309 5307 5305 5303 5302 5301 5301 5300 5299 5298 5297 5296 5297 5296 5298
5328 5327 5327 5326 5325 5324 5323 5322 5321 5320 5319 5318 5317 5315 5314 5313 5311 5309 5307 5305 5303 5302 5300 5298 5296 5294 5292 5291 5289 5289 5288 5287 5286 5286 5286 5285 5285 5285